Home   Weather   Paris Canyon   Past weeks
Flag for USA

Past Weather in Paris Canyon, Idaho, USA — Yesterday and Last 2 Weeks

Now
24 °F

Clear.


Feels Like: 24 °F
Forecast: 38 / 27 °F
Wind: No wind

Location: Pocatello Regional Airport

Current Time: Dec 11, 2019 at 7:01:08 am

Latest Report: Dec 11, 2019 at 5:53 am


Visibility: 10 mi

Pressure: 30.24 "Hg

Humidity: 84%

Dew Point: 20 °F

Location of Paris CanyonLocation

Past Weather in Paris Canyon — Graph

°F

Paris Canyon Temperature Yesterday

Maximum temperature yesterday: 40 °F (at 1:53 pm)
Minimum temperature yesterday: 20 °F (at 11:53 pm)
Average temperature yesterday: 31 °F

High & Low Weather Summary for the Past Weeks

 TemperatureHumidityPressure
High49 °F (Dec 7, 12:53 pm)100% (Dec 3, 2:36 am)30.47 "Hg (Dec 3, 2:36 am)
Low1 °F (Dec 1, 2:19 am)45% (Nov 28, 2:53 pm)29.43 "Hg (Nov 29, 11:00 am)
Average30 °F83%30.06 "Hg
* Reported Nov 26 5:18 am — Dec 11 5:53 am, Paris Canyon. Weather by CustomWeather, © 2019

Note: Actual official high and low records may vary slightly from our data, if they occured in-between our weather recording intervals... More about our weather records

Paris Canyon Weather History for the Previous 24 Hours

Scroll right to see more
 ConditionsComfort  
Time TempWeatherWind HumidityBarometerVisibility
5:53 am
Wed, Dec 11
24 °FClear.No wind84%30.24 "Hg10 mi
4:53 am23 °FClear.3 mph92%30.24 "Hg10 mi
3:53 am22 °FClear.No wind92%30.23 "Hg10 mi
2:53 am21 °FClear.No wind92%30.25 "Hg10 mi
1:53 am22 °FClear.No wind89%30.26 "Hg9 mi
12:53 am21 °FClear.No wind92%30.28 "Hg10 mi
11:53 pm
Tue, Dec 10
20 °FClear.No wind92%30.31 "Hg9 mi
10:53 pm21 °FClear.3 mph96%30.33 "Hg9 mi
9:53 pm22 °FClear.5 mph92%30.35 "Hg10 mi
8:53 pm24 °FClear.6 mph88%30.35 "Hg10 mi
7:55 pm25 °FClear.3 mph92%30.26 "Hg10 mi
6:53 pm28 °FClear.6 mph89%30.36 "Hg10 mi
5:53 pm27 °FSunny.No wind89%30.36 "Hg10 mi
4:53 pm31 °FPassing clouds.5 mph82%30.36 "Hg10 mi
3:53 pm38 °FPassing clouds.8 mph68%30.32 "Hg10 mi
2:53 pm39 °FPassing clouds.6 mph62%30.30 "Hg10 mi
1:53 pm40 °FScattered clouds.3 mph60%30.31 "Hg10 mi
12:53 pm38 °FPartly sunny.3 mph65%30.33 "Hg10 mi
11:53 am35 °FPartly sunny.3 mph70%30.36 "Hg10 mi
10:53 am33 °FPartly sunny.5 mph75%30.37 "Hg10 mi
9:53 am31 °FPartly sunny.6 mph79%30.36 "Hg10 mi
8:53 am29 °FPartly sunny.6 mph89%30.36 "Hg10 mi
7:53 am29 °FPassing clouds.No wind85%30.34 "Hg10 mi
Weather by CustomWeather, © 2019

See weather overview

Advertising